Starlink 33848

operational
NORAD ID: 63705 Int'l Des: 2025-087 Owner: SPXS Country: US Constellation: starlink
LEOCIRCULAR

关于 Starlink 33848

正在加载描述...

实时位置

正在加载3D地球...

即将过境

高度历史

Altitude vs Time

uPlot chart will show altitude changes over time

两行轨道根数

1 63705U 25087J 25258.46215597 .00041808 00000-0 14138-2 0 9994
2 63705 53.1578 313.3213 0002035 62.0667 298.0539 15.30245156 22366
Epoch: Sep 15, 2025 • Age: 21 hours

当前状态

高度 474.6 km
速度 7.63 km/s
星下点 24.02°N, 140.78°W
发射日期 Apr 28, 2025
运行时间 0.3 years
类型 internet

技术详情

分类 Payload
质量 575.00 kg
干质量 530.00 kg
总质量 575.00 kg
长度 0.30 m
直径 4.10 m
跨度 29.00 m
形状 Box + pan
制造商 SPXS
平台类型 Starlink V2MO
阶段状态 In Orbit
所有者/国家 SPXS/US

大型星座

Loading constellations...